User: anonymous   Login
Location: Maiden
(35.5760°N, 81.2120°W)
Time: 08:50:04
(UTC-05:00)
Language:

Cosmos 2151 - Orbit

View from above orbital plane
View from above orbital plane
View from above satellite
View from above satellite

Ground track
Ground track

The orbit data is extracted from the following two-line orbital elements,

1 21422U 91042A   14329.48942810  .00002389  00000-0  24142-3 0   755
2 21422 082.5028 055.3468 0015121 169.0629 191.0922 14.90566900269182
Epoch (UTC): 25 November 2014 11:44:46
Eccentricity: 0.0015121
inclination: 82.5028°
perigee height: 585 km
apogee height: 607 km
right ascension of ascending node: 55.3468°
argument of perigee: 169.0629°
revolutions per day: 14.90566900
mean anomaly at epoch: 191.0922°
orbit number at epoch: 26918

The dashed part of the orbit path shows where the satellite is in the earth's shadow,  

DLR